SCP
0 -0 0 -0 -0 -0 0 -0 0 0 0 0 0 0 -0 -0 0 0 -0 0 0 0 0 0 -0 0 -0 0 -0 0 0 0 0 0 -0 -0 0 0 0 0 -0 0 -0
0 -0 -0 -0 0 -0 0 0 -0 0 0 0 -0 0 0 0 0 0 0 0 0 -0 0 -0 -0 -0 0 -0 -0 -0 0 0 0 0 0 0 0 0 0 0 0 0 -0
0 -0 -0 -0 -0 0 0 0 -0 0 0 0 0 -0 0 0 0 0 0 0 0 -0 -0 0 -0 0 0 -0 0 0 0 0 -0 0 0 0 0 0 0 0 0 0 0
0 -0 -0 -1 -0 0 -0 0 -0 0 -0 -0 -0 -0 -0 -0 0 0 -0 0 -0 0 -0 0 0 0 0 -0 0 0 0 0 0 0 0 0 0 0 0 0 0 0 0
0 0 -0 -1 0 0 0 0 -0 -0 -0 -0 -0 0 0 0 0 0 0 -0 0 -0 -0 0 0 0 0 0 -0 0 -0 0 0 0 0 0 0 0 0 0 0 0 0
0 0 0 0 0 -0 -0 0 -0 0 -0 -0 -0 0 0 0 0 0 0 0 0 0 0 0 0 0 0 0 0 0 0 0 0 0 0 0 0 0 0 0 0 0 0
1 0 -0 -0 -0 -1 -1 -1 -0 -0 -0 -0 0 0 -0 0 0 0 0 0 0 0 0 0 0 0 0 0 0 0 -0 0 -0 -0 -0 -0 0 0 0 0 0 0 0
0 -0 -0 -1 -1 -1 -1 -0 -0 -0 -0 -0 -0 -0 0 0 0 0 0 0 -0 -0 -0 -0 0 0 0 0 0 0 0 0 0 0 0 -0 0 0 0 0 0 0 0
0 -1 -2 -1 -1 -2 -2 -1 -1 -0 -0 -0 -0 -0 0 0 0 -0 -0 -0 -0 -0 -0 -0 0 0 0 0 0 0 0 0 0 0 0 0 0 0 0 0 0 0 0
-0 -0 -1 -1 -0 -1 -1 -1 -0 -0 -0 -0 -0 0 -0 -0 -0 -0 -0 -0 -0 0 0 0 0 0 0 0 0 0 0 0 0 0 0 0 0 0 0 0 0 0 0
-0 0 -0 -0 -0 -0 -0 -0 -0 -0 0 -0 0 -0 0 0 0 -0 0 0 0 0 0 0 0 0 0 0 0 0 0 0 0 0 0 0 0 0 0 0 0 0 0
-0 -0 -0 -0 -0 0 0 0 0 0 0 0 0 0 0 0 0 0 0 0 0 0 0 0 0 0 0 0 0 0 0 0 0 0 0 0 0 0 0 0 0 0 0
-0 -0 -0 -0 0 0 0 0 0 0 0 0 0 0 0 0 0 0 0 0 0 0 0 0 0 0 0 0 0 0 0 0 0 0 -0 -0 0 0 0 0 0 0 0
-0 -0 -0 0 0 0 0 0 0 0 0 0 0 0 0 0 0 0 0 0 0 0 0 0 0 0 0 0 0 0 0 0 0 0 0 0 0 0 0 0 0 0 0
-0 0 0 0 0 0 0 0 0 0 0 0 0 0 0 0 0 0 0 0 0 0 0 0 0 0 0 0 0 0 0 0 0 0 0 0 0 0 0 0 0 0 0
-0 -0 -0 0 0 0 0 0 0 0 0 0 0 0 0 0 0 0 0 0 0 0 0 0 0 0 0 0 0 0 0 0 0 0 0 0 0 0 0 0 0 0 0
-0 -0 -0 -0 0 0 0 0 0 0 0 0 0 0 0 0 0 0 0 0 0 0 0 0 0 0 0 0 0 0 0 0 0 0 0 0 0 0 0 0 0 0 0
0 0 0 0 0 0 0 0 0 0 0 0 0 0 0 0 0 0 0 0 0 0 0 0 0 0 0 0 0 0 0 0 0 0 0 0 0 0 0 0 0 0 0
0 0 0 0 0 0 0 0 0 0 0 0 0 0 0 0 0 0 0 0 0 0 0 0 0 0 0 0 0 0 0 0 0 0 0 0 0 0 0 0 0 0 0
0 1 1 1 0 0 0 0 0 0 0 0 0 0 0 0 0 0 0 0 0 0 0 0 0 0 0 0 0 0 0 0 0 0 0 0 0 0 0 0 0 0 0
1 1 0 0 0 0 0 0 0 0 0 0 0 0 0 0 0 0 0 0 0 0 0 0 0 0 0 0 0 0 0 0 0 0 0 0 0 0 0 0 0 0 0
1 1 1 0 0 0 0 0 0 0 0 0 0 0 0 0 0 0 0 0 0 0 0 0 0 0 0 0 0 0 0 0 0 0 0 0 0 0 0 0 0 0 0
1 0 0 0 0 0 0 0 0 0 0 0 0 0 0 0 0 0 0 0 0 0 0 0 0 0 0 0 0 0 0 0 0 0 0 0 0 0 0 0 0 0 0
0 0 0 0 0 0 0 0 0 0 0 0 0 0 0 0 0 0 0 0 0 0 0 0 0 0 0 0 0 0 0 0 0 0 0 0 0 0 0 0 0 0 0
0 0 0 0 0 0 0 0 0 0 0 0 0 0 0 0 0 0 0 0 0 0 0 0 0 0 0 0 0 0 0 0 0 0 0 0 0 0 0 0 0 0 0
0 0 0 0 0 0 0 0 0 0 0 0 0 0 0 0 0 0 0 0 0 0 0 0 0 0 0 0 0 0 0 0 0 0 0 0 0 0 0 0 0 0 0
Wind_Speed_500mb
39 53 54 25 9 22 36 35 28 39 26 23 28 25 21 16 16 13 10 10 5 10 7 2 5 11 14 10 21 15 8 11 11 18 13 15 17 23 24 27 36 38 35
61 55 62 52 40 24 36 41 44 36 28 26 21 21 10 17 16 19 17 19 16 7 8 7 10 14 12 18 13 21 17 17 17 20 26 23 29 13 13 24 18 21 26
56 67 67 47 32 60 44 48 47 35 31 26 22 22 22 17 18 14 16 17 33 13 10 13 11 15 19 25 16 25 23 17 19 18 13 10 7 22 11 15 17 29 37
37 36 69 60 44 54 55 46 31 28 32 36 26 20 12 18 16 17 19 15 3 10 13 19 16 15 19 24 24 26 27 29 25 22 23 19 23 23 22 15 21 27 36
28 42 41 44 56 53 49 47 29 23 22 31 27 16 18 9 5 19 8 18 18 14 13 16 16 21 24 23 29 26 34 37 39 33 35 39 35 37 36 44 31 28 31
35 30 41 57 57 57 50 36 30 32 29 25 24 22 19 6 6 4 9 6 5 7 8 11 13 14 20 24 28 31 30 34 36 36 33 33 37 36 35 39 41 41 40
48 51 47 52 53 47 41 30 19 22 25 22 13 10 13 13 11 7 10 7 12 15 13 13 17 9 13 17 18 22 25 23 27 32 33 34 38 36 39 43 44 44 44
34 38 36 41 44 40 36 27 16 20 19 15 13 16 14 14 14 17 17 7 9 19 28 25 20 21 22 23 23 20 20 19 23 29 33 38 39 37 40 37 40 44 50
35 47 48 43 35 41 37 26 19 19 14 9 9 7 10 12 11 16 23 27 27 29 29 33 29 29 30 27 29 28 24 23 24 26 29 34 37 36 40 46 49 44 52
45 36 36 34 32 34 32 26 19 15 12 11 11 12 11 8 6 11 16 23 26 27 28 27 26 25 24 25 32 33 33 30 30 28 27 28 32 38 40 39 40 45 44
40 34 31 41 39 31 25 20 20 19 11 5 7 10 11 10 11 18 21 19 19 18 18 19 21 22 22 22 23 27 31 33 33 31 32 32 31 32 33 35 38 46 51
45 51 49 42 32 33 30 28 19 12 7 8 3 4 7 1 13 19 20 21 19 17 15 17 18 18 18 19 18 19 22 25 25 28 30 33 34 30 28 34 36 36 42
51 42 37 39 45 43 36 28 19 13 10 5 5 7 10 10 15 17 18 17 14 12 15 15 17 21 21 20 21 21 23 25 27 32 37 40 41 39 33 33 36 35 36
54 49 48 48 45 37 32 29 21 12 8 3 5 8 10 11 14 17 18 16 8 4 9 10 12 14 17 17 20 26 31 30 30 30 34 38 39 38 38 37 40 35 37
65 62 60 54 48 39 32 23 15 8 6 3 7 12 12 11 15 18 18 14 7 6 9 8 7 9 21 25 25 20 20 24 23 17 18 21 25 28 22 30 38 41 42
67 66 63 56 49 41 33 23 16 8 2 1 7 10 10 13 15 19 14 9 4 10 11 9 12 20 17 24 25 23 21 20 20 22 22 24 24 10 28 32 33 29 35
74 72 64 56 47 41 33 25 16 8 4 6 8 13 12 16 16 18 16 12 13 15 15 16 17 18 20 25 25 25 22 14 13 20 25 28 23 27 28 32 35 37 37
79 73 64 53 41 35 28 25 20 12 8 7 11 15 15 14 15 14 14 14 12 11 7 9 15 21 24 20 24 27 26 23 19 16 15 21 26 28 29 29 33 33 26
75 70 62 52 42 40 38 30 23 15 8 8 15 19 17 15 13 10 9 10 14 6 6 4 9 18 21 24 32 37 35 28 20 7 12 22 27 27 27 28 28 25 20
70 66 59 54 53 48 40 28 24 14 9 13 18 19 16 11 8 6 7 10 19 17 7 11 14 15 22 28 34 41 48 40 27 16 15 23 28 27 25 22 21 21 19
64 58 53 55 52 45 33 26 19 12 16 17 21 17 14 9 9 11 12 17 13 13 16 19 17 17 20 27 32 40 46 44 35 30 28 22 23 23 21 22 21 22 20
62 61 59 50 40 29 22 22 20 21 19 20 16 13 12 10 8 10 7 6 10 14 17 15 9 8 18 24 33 41 45 37 31 27 28 27 22 21 21 25 22 22 22
56 55 48 41 30 22 24 20 19 20 20 20 14 10 13 14 12 16 4 13 8 18 23 18 20 18 32 35 37 39 33 25 22 24 18 17 16 19 17 24 31 29 23
36 33 30 32 27 22 22 21 21 23 22 17 13 10 7 5 13 18 7 11 8 25 24 26 21 20 21 29 28 26 22 18 15 13 14 14 19 20 19 18 20 21 22
27 32 35 27 19 16 16 15 21 21 17 11 4 7 3 11 9 14 6 14 22 22 22 25 27 27 26 24 25 23 19 19 15 9 14 19 22 17 19 16 18 20 24
29 29 24 19 17 18 18 18 19 19 15 12 8 11 10 10 17 16 13 16 21 23 20 20 21 27 31 27 21 15 11 18 16 15 24 29 26 22 23 18 19 14 20
Wind_Direction_500mb
167 171 181 129 163 175 182 172 162 159 176 194 205 203 216 259 256 249 243 277 237 228 208 248 279 270 260 261 289 301 270 272 287 292 335 342 314 244 280 248 247 252 247
166 161 165 155 45 190 191 175 178 188 199 213 179 211 213 257 267 260 282 288 281 284 314 274 311 295 289 242 243 281 285 283 262 302 288 313 310 267 307 279 295 249 250
173 164 173 175 131 159 174 184 182 192 204 162 207 222 219 247 248 261 253 273 261 243 246 294 264 287 276 289 279 267 272 286 253 279 260 300 261 295 275 314 295 268 259
169 161 196 200 177 158 165 177 167 178 178 187 194 206 216 239 276 289 314 292 17 220 222 250 266 267 284 277 271 265 268 268 268 270 268 267 281 294 295 295 283 277 248
140 146 159 177 172 154 158 175 174 172 158 192 207 213 218 242 344 359 334 303 306 308 241 266 279 282 285 270 272 259 260 268 274 272 272 275 275 271 277 284 286 277 285
139 143 132 155 156 160 163 166 174 180 189 191 203 224 241 227 271 318 276 260 296 329 22 231 274 321 312 285 275 275 276 267 273 277 280 274 280 276 277 279 281 284 288
132 134 129 132 148 155 164 171 169 190 196 208 217 231 249 258 244 283 281 260 245 270 297 281 278 281 270 276 271 271 272 275 276 278 280 278 276 277 276 269 274 279 283
127 130 144 142 148 152 156 155 139 125 126 152 191 224 235 250 274 273 267 255 276 295 301 295 278 272 271 272 280 278 278 270 275 283 289 290 289 279 275 276 276 280 280
132 138 148 154 148 156 161 159 148 146 159 195 232 280 266 270 285 293 288 297 294 289 288 290 283 273 266 266 273 274 273 272 282 282 293 296 285 280 276 274 276 275 283
146 141 139 134 139 148 151 157 149 155 169 208 214 237 260 290 301 274 288 292 293 294 292 293 291 288 285 273 264 267 272 275 276 284 298 301 298 291 290 277 272 269 276
146 155 152 142 141 149 148 145 141 152 150 165 217 246 277 302 290 304 309 309 313 317 320 322 324 319 314 303 286 276 277 277 279 277 283 285 293 298 298 293 286 274 274
157 152 158 155 150 141 133 131 134 134 108 102 126 341 337 257 285 306 321 323 331 342 342 345 349 353 358 350 327 305 293 286 285 283 278 282 283 288 302 305 299 286 280
153 156 159 150 147 150 154 155 146 119 101 85 343 287 268 270 281 298 308 321 338 9 1 359 5 1 332 344 331 325 320 311 301 292 286 285 284 281 292 301 308 300 295
166 164 166 160 164 170 171 164 161 154 124 106 314 322 311 307 293 311 325 324 319 345 353 1 353 348 326 320 304 310 312 309 309 303 294 289 281 277 278 289 292 300 307
168 170 169 170 174 180 180 179 169 149 102 96 307 321 320 315 316 325 325 322 321 271 298 288 308 318 303 295 313 330 330 332 334 342 349 344 328 283 287 302 298 297 291
173 176 177 181 189 194 191 186 182 173 144 9 304 310 320 308 326 323 329 326 345 357 357 359 341 358 350 334 347 354 353 359 16 10 360 355 353 335 301 292 295 300 301
180 181 184 192 200 201 195 191 198 214 289 332 320 312 320 310 318 321 330 9 19 11 4 1 347 350 345 357 10 4 1 350 354 357 348 347 328 309 305 293 299 302 291
182 185 189 195 201 200 194 200 211 226 259 295 307 314 318 312 320 335 4 13 10 344 352 12 342 327 342 5 6 5 1 352 345 319 329 332 321 318 310 303 296 303 301
185 189 191 192 191 191 197 206 214 232 265 286 292 307 314 311 323 333 349 13 328 343 200 339 311 322 337 343 352 350 350 347 358 303 312 327 315 319 316 318 313 309 306
185 182 181 181 185 190 202 216 222 234 257 270 293 302 310 313 334 350 358 331 319 5 46 28 9 342 332 334 339 343 340 338 338 335 306 320 323 328 332 324 325 327 327
176 175 183 189 193 197 211 219 212 227 253 274 295 308 323 338 302 313 309 327 16 63 45 2 15 347 316 321 328 333 337 337 334 331 326 322 314 324 325 319 330 334 326
157 173 179 181 190 196 210 196 205 236 258 282 288 302 321 345 342 338 44 49 31 32 13 18 32 347 324 323 322 325 330 330 322 325 331 355 355 356 340 327 337 336 315
157 163 171 172 178 187 204 211 229 256 276 284 285 289 303 329 11 14 70 31 348 338 335 307 285 294 301 301 308 320 324 328 331 339 341 345 345 332 326 326 325 328 327
153 163 186 193 188 204 220 221 239 263 277 273 274 284 291 353 16 11 15 5 292 326 337 347 341 325 304 309 316 326 334 335 350 8 356 335 351 350 344 353 3 1 1
145 176 186 193 216 236 243 247 258 271 276 266 289 12 26 346 328 324 314 335 313 318 328 344 352 353 343 332 330 337 351 3 8 12 354 342 327 351 7 12 11 11 2
175 183 180 189 208 234 260 273 264 275 279 258 213 313 279 279 298 312 265 306 303 311 316 328 333 351 354 348 343 345 17 27 26 26 18 16 26 26 17 7 354 338 337
Wind_Speed_850mb
39 53 54 25 9 22 36 35 28 39 26 23 28 25 21 16 16 13 10 10 5 10 7 2 5 11 14 10 21 15 8 11 11 18 13 15 17 23 24 27 36 38 35
61 55 62 52 40 24 36 41 44 36 28 26 21 21 10 17 16 19 17 19 16 7 8 7 10 14 12 18 13 21 17 17 17 20 26 23 29 13 13 24 18 21 26
56 67 67 47 32 60 44 48 47 35 31 26 22 22 22 17 18 14 16 17 33 13 10 13 11 15 19 25 16 25 23 17 19 18 13 10 7 22 11 15 17 29 37
37 36 69 60 44 54 55 46 31 28 32 36 26 20 12 18 16 17 19 15 3 10 13 19 16 15 19 24 24 26 27 29 25 22 23 19 23 23 22 15 21 27 36
28 42 41 44 56 53 49 47 29 23 22 31 27 16 18 9 5 19 8 18 18 14 13 16 16 21 24 23 29 26 34 37 39 33 35 39 35 37 36 44 31 28 31
35 30 41 57 57 57 50 36 30 32 29 25 24 22 19 6 6 4 9 6 5 7 8 11 13 14 20 24 28 31 30 34 36 36 33 33 37 36 35 39 41 41 40
48 51 47 52 53 47 41 30 19 22 25 22 13 10 13 13 11 7 10 7 12 15 13 13 17 9 13 17 18 22 25 23 27 32 33 34 38 36 39 43 44 44 44
34 38 36 41 44 40 36 27 16 20 19 15 13 16 14 14 14 17 17 7 9 19 28 25 20 21 22 23 23 20 20 19 23 29 33 38 39 37 40 37 40 44 50
35 47 48 43 35 41 37 26 19 19 14 9 9 7 10 12 11 16 23 27 27 29 29 33 29 29 30 27 29 28 24 23 24 26 29 34 37 36 40 46 49 44 52
45 36 36 34 32 34 32 26 19 15 12 11 11 12 11 8 6 11 16 23 26 27 28 27 26 25 24 25 32 33 33 30 30 28 27 28 32 38 40 39 40 45 44
40 34 31 41 39 31 25 20 20 19 11 5 7 10 11 10 11 18 21 19 19 18 18 19 21 22 22 22 23 27 31 33 33 31 32 32 31 32 33 35 38 46 51
45 51 49 42 32 33 30 28 19 12 7 8 3 4 7 1 13 19 20 21 19 17 15 17 18 18 18 19 18 19 22 25 25 28 30 33 34 30 28 34 36 36 42
51 42 37 39 45 43 36 28 19 13 10 5 5 7 10 10 15 17 18 17 14 12 15 15 17 21 21 20 21 21 23 25 27 32 37 40 41 39 33 33 36 35 36
54 49 48 48 45 37 32 29 21 12 8 3 5 8 10 11 14 17 18 16 8 4 9 10 12 14 17 17 20 26 31 30 30 30 34 38 39 38 38 37 40 35 37
65 62 60 54 48 39 32 23 15 8 6 3 7 12 12 11 15 18 18 14 7 6 9 8 7 9 21 25 25 20 20 24 23 17 18 21 25 28 22 30 38 41 42
67 66 63 56 49 41 33 23 16 8 2 1 7 10 10 13 15 19 14 9 4 10 11 9 12 20 17 24 25 23 21 20 20 22 22 24 24 10 28 32 33 29 35
74 72 64 56 47 41 33 25 16 8 4 6 8 13 12 16 16 18 16 12 13 15 15 16 17 18 20 25 25 25 22 14 13 20 25 28 23 27 28 32 35 37 37
79 73 64 53 41 35 28 25 20 12 8 7 11 15 15 14 15 14 14 14 12 11 7 9 15 21 24 20 24 27 26 23 19 16 15 21 26 28 29 29 33 33 26
75 70 62 52 42 40 38 30 23 15 8 8 15 19 17 15 13 10 9 10 14 6 6 4 9 18 21 24 32 37 35 28 20 7 12 22 27 27 27 28 28 25 20
70 66 59 54 53 48 40 28 24 14 9 13 18 19 16 11 8 6 7 10 19 17 7 11 14 15 22 28 34 41 48 40 27 16 15 23 28 27 25 22 21 21 19
64 58 53 55 52 45 33 26 19 12 16 17 21 17 14 9 9 11 12 17 13 13 16 19 17 17 20 27 32 40 46 44 35 30 28 22 23 23 21 22 21 22 20
62 61 59 50 40 29 22 22 20 21 19 20 16 13 12 10 8 10 7 6 10 14 17 15 9 8 18 24 33 41 45 37 31 27 28 27 22 21 21 25 22 22 22
56 55 48 41 30 22 24 20 19 20 20 20 14 10 13 14 12 16 4 13 8 18 23 18 20 18 32 35 37 39 33 25 22 24 18 17 16 19 17 24 31 29 23
36 33 30 32 27 22 22 21 21 23 22 17 13 10 7 5 13 18 7 11 8 25 24 26 21 20 21 29 28 26 22 18 15 13 14 14 19 20 19 18 20 21 22
27 32 35 27 19 16 16 15 21 21 17 11 4 7 3 11 9 14 6 14 22 22 22 25 27 27 26 24 25 23 19 19 15 9 14 19 22 17 19 16 18 20 24
29 29 24 19 17 18 18 18 19 19 15 12 8 11 10 10 17 16 13 16 21 23 20 20 21 27 31 27 21 15 11 18 16 15 24 29 26 22 23 18 19 14 20
Wind_Direction_850mb
167 171 181 129 163 175 182 172 162 159 176 194 205 203 216 259 256 249 243 277 237 228 208 248 279 270 260 261 289 301 270 272 287 292 335 342 314 244 280 248 247 252 247
166 161 165 155 45 190 191 175 178 188 199 213 179 211 213 257 267 260 282 288 281 284 314 274 311 295 289 242 243 281 285 283 262 302 288 313 310 267 307 279 295 249 250
173 164 173 175 131 159 174 184 182 192 204 162 207 222 219 247 248 261 253 273 261 243 246 294 264 287 276 289 279 267 272 286 253 279 260 300 261 295 275 314 295 268 259
169 161 196 200 177 158 165 177 167 178 178 187 194 206 216 239 276 289 314 292 17 220 222 250 266 267 284 277 271 265 268 268 268 270 268 267 281 294 295 295 283 277 248
140 146 159 177 172 154 158 175 174 172 158 192 207 213 218 242 344 359 334 303 306 308 241 266 279 282 285 270 272 259 260 268 274 272 272 275 275 271 277 284 286 277 285
139 143 132 155 156 160 163 166 174 180 189 191 203 224 241 227 271 318 276 260 296 329 22 231 274 321 312 285 275 275 276 267 273 277 280 274 280 276 277 279 281 284 288
132 134 129 132 148 155 164 171 169 190 196 208 217 231 249 258 244 283 281 260 245 270 297 281 278 281 270 276 271 271 272 275 276 278 280 278 276 277 276 269 274 279 283
127 130 144 142 148 152 156 155 139 125 126 152 191 224 235 250 274 273 267 255 276 295 301 295 278 272 271 272 280 278 278 270 275 283 289 290 289 279 275 276 276 280 280
132 138 148 154 148 156 161 159 148 146 159 195 232 280 266 270 285 293 288 297 294 289 288 290 283 273 266 266 273 274 273 272 282 282 293 296 285 280 276 274 276 275 283
146 141 139 134 139 148 151 157 149 155 169 208 214 237 260 290 301 274 288 292 293 294 292 293 291 288 285 273 264 267 272 275 276 284 298 301 298 291 290 277 272 269 276
146 155 152 142 141 149 148 145 141 152 150 165 217 246 277 302 290 304 309 309 313 317 320 322 324 319 314 303 286 276 277 277 279 277 283 285 293 298 298 293 286 274 274
157 152 158 155 150 141 133 131 134 134 108 102 126 341 337 257 285 306 321 323 331 342 342 345 349 353 358 350 327 305 293 286 285 283 278 282 283 288 302 305 299 286 280
153 156 159 150 147 150 154 155 146 119 101 85 343 287 268 270 281 298 308 321 338 9 1 359 5 1 332 344 331 325 320 311 301 292 286 285 284 281 292 301 308 300 295
166 164 166 160 164 170 171 164 161 154 124 106 314 322 311 307 293 311 325 324 319 345 353 1 353 348 326 320 304 310 312 309 309 303 294 289 281 277 278 289 292 300 307
168 170 169 170 174 180 180 179 169 149 102 96 307 321 320 315 316 325 325 322 321 271 298 288 308 318 303 295 313 330 330 332 334 342 349 344 328 283 287 302 298 297 291
173 176 177 181 189 194 191 186 182 173 144 9 304 310 320 308 326 323 329 326 345 357 357 359 341 358 350 334 347 354 353 359 16 10 360 355 353 335 301 292 295 300 301
180 181 184 192 200 201 195 191 198 214 289 332 320 312 320 310 318 321 330 9 19 11 4 1 347 350 345 357 10 4 1 350 354 357 348 347 328 309 305 293 299 302 291
182 185 189 195 201 200 194 200 211 226 259 295 307 314 318 312 320 335 4 13 10 344 352 12 342 327 342 5 6 5 1 352 345 319 329 332 321 318 310 303 296 303 301
185 189 191 192 191 191 197 206 214 232 265 286 292 307 314 311 323 333 349 13 328 343 200 339 311 322 337 343 352 350 350 347 358 303 312 327 315 319 316 318 313 309 306
185 182 181 181 185 190 202 216 222 234 257 270 293 302 310 313 334 350 358 331 319 5 46 28 9 342 332 334 339 343 340 338 338 335 306 320 323 328 332 324 325 327 327
176 175 183 189 193 197 211 219 212 227 253 274 295 308 323 338 302 313 309 327 16 63 45 2 15 347 316 321 328 333 337 337 334 331 326 322 314 324 325 319 330 334 326
157 173 179 181 190 196 210 196 205 236 258 282 288 302 321 345 342 338 44 49 31 32 13 18 32 347 324 323 322 325 330 330 322 325 331 355 355 356 340 327 337 336 315
157 163 171 172 178 187 204 211 229 256 276 284 285 289 303 329 11 14 70 31 348 338 335 307 285 294 301 301 308 320 324 328 331 339 341 345 345 332 326 326 325 328 327
153 163 186 193 188 204 220 221 239 263 277 273 274 284 291 353 16 11 15 5 292 326 337 347 341 325 304 309 316 326 334 335 350 8 356 335 351 350 344 353 3 1 1
145 176 186 193 216 236 243 247 258 271 276 266 289 12 26 346 328 324 314 335 313 318 328 344 352 353 343 332 330 337 351 3 8 12 354 342 327 351 7 12 11 11 2
175 183 180 189 208 234 260 273 264 275 279 258 213 313 279 279 298 312 265 306 303 311 316 328 333 351 354 348 343 345 17 27 26 26 18 16 26 26 17 7 354 338 337